| time (UTC) | temp F | wind direction | speed MPH | gust MPH | rain 1hr in | rain 24hr in | rain mn in | humidity % | barometer mb |
| 20260905150034 | 87 | 275 | 0.0 | 0.0 | 0.00 | 1.97 | 0.00 | 48 | 968.7 |
| 20260905144531 | 86 | 275 | 0.0 | 0.0 | 0.00 | 1.97 | 0.00 | 48 | 968.7 |
| 20260905143030 | 86 | 275 | 0.0 | 0.0 | 0.00 | 1.97 | 0.00 | 50 | 968.7 |
| 20260905141529 | 85 | 275 | 0.0 | 0.0 | 0.00 | 1.97 | 0.00 | 49 | 968.5 |
| 20260905140027 | 85 | 275 | 0.0 | 0.0 | 0.00 | 1.97 | 0.00 | 49 | 968.4 |
| 20260905134525 | 84 | 275 | 0.0 | 0.0 | 0.00 | 1.97 | 0.00 | 50 | 968.2 |
| 20260905133023 | 83 | 275 | 0.0 | 0.0 | 0.00 | 1.97 | 0.00 | 52 | 968.0 |
| 20260905131522 | 83 | 275 | 0.0 | 0.0 | 0.00 | 1.97 | 0.00 | 52 | 967.9 |
| 20260905130020 | 83 | 275 | 0.0 | 0.0 | 0.00 | 1.97 | 0.00 | 51 | 967.8 |
| 20260905124517 | 84 | 275 | 0.0 | 0.0 | 0.00 | 1.97 | 0.00 | 51 | 967.7 |
| 20260905123015 | 84 | 275 | 0.0 | 0.0 | 0.00 | 1.97 | 0.00 | 49 | 967.6 |
| 20260905121513 | 85 | 275 | 0.0 | 0.0 | 0.00 | 1.97 | 0.00 | 49 | 967.6 |
| 20260905120011 | 85 | 275 | 0.0 | 0.0 | 0.00 | 1.97 | 0.00 | 48 | 967.4 |
| 20260905114512 | 85 | 275 | 0.0 | 0.0 | 0.00 | 1.97 | 0.00 | 48 | 967.4 |
| 20260905113010 | 84 | 275 | 0.0 | 0.0 | 0.00 | 1.97 | 0.00 | 48 | 967.4 |
| 20260905111508 | 85 | 275 | 0.0 | 0.0 | 0.00 | 1.97 | 0.00 | 46 | 967.3 |
| 20260905110009 | 85 | 275 | 0.0 | 0.0 | 0.00 | 1.97 | 0.00 | 45 | 967.2 |
| 20260905104502 | 86 | 275 | 0.0 | 0.0 | 0.00 | 1.97 | 0.00 | 44 | 967.1 |
| 20260905103100 | 87 | 275 | 0.0 | 0.0 | 0.00 | 1.97 | 0.00 | 43 | 967.0 |
| 20260905101559 | 87 | 275 | 0.0 | 0.0 | 0.00 | 1.97 | 0.00 | 43 | 967.0 |
| 20260905100058 | 87 | 275 | 0.0 | 0.0 | 0.00 | 1.97 | 0.00 | 42 | 966.9 |
| 20260905094557 | 87 | 275 | 0.0 | 0.0 | 0.00 | 1.97 | 0.00 | 42 | 966.8 |
| 20260905093057 | 87 | 275 | 0.0 | 0.0 | 0.00 | 1.97 | 0.00 | 41 | 967.0 |
| 20260905091618 | 88 | 275 | 0.0 | 0.0 | 0.00 | 1.97 | 0.00 | 41 | 966.9 |
| 20260905090116 | 88 | 275 | 0.0 | 0.0 | 0.00 | 1.97 | 0.00 | 40 | 966.8 |
| 20260905084600 | 89 | 275 | 0.0 | 0.0 | 0.00 | 1.97 | 0.00 | 39 | 967.0 |
| 20260905083048 | 89 | 275 | 0.0 | 0.0 | 0.00 | 1.97 | 0.00 | 39 | 967.0 |
| 20260905081546 | 90 | 275 | 0.0 | 0.0 | 0.00 | 1.97 | 0.00 | 38 | 966.9 |
| 20260905080050 | 90 | 275 | 0.0 | 0.0 | 0.00 | 1.97 | 0.00 | 38 | 967.0 |
| 20260905074544 | 90 | 275 | 0.0 | 0.0 | 0.00 | 1.98 | 0.00 | 37 | 966.9 |
| 20260905073046 | 91 | 275 | 0.0 | 0.0 | 0.00 | 1.98 | 0.00 | 37 | 966.8 |
| 20260905071538 | 91 | 275 | 0.0 | 0.0 | 0.00 | 1.98 | 0.00 | 36 | 966.8 |
| 20260905070037 | 92 | 275 | 0.0 | 0.0 | 0.00 | 1.98 | 0.00 | 36 | 966.8 |
| 20260905064541 | 92 | 275 | 0.0 | 0.0 | 0.00 | 2.11 | 1.98 | 36 | 966.8 |
| 20260905063036 | 92 | 275 | 0.0 | 0.0 | 0.00 | 2.11 | 1.98 | 35 | 966.7 |
| 20260905061550 | 93 | 275 | 0.0 | 2.0 | 0.00 | 2.11 | 1.98 | 35 | 966.6 |
| 20260905060035 | 93 | 260 | 0.0 | 0.0 | 0.00 | 2.11 | 1.98 | 35 | 966.5 |
| 20260905054535 | 93 | 260 | 0.0 | 0.0 | 0.00 | 2.11 | 1.98 | 35 | 966.5 |
| 20260905053033 | 93 | 260 | 0.0 | 0.0 | 0.00 | 2.11 | 1.98 | 35 | 966.4 |
| 20260905051538 | 94 | 260 | 0.0 | 0.0 | 0.00 | 2.11 | 1.98 | 34 | 966.3 |
| 20260905050036 | 94 | 260 | 0.0 | 0.0 | 0.00 | 2.11 | 1.98 | 32 | 966.3 |
| 20260905044535 | 95 | 244 | 0.0 | 0.0 | 0.00 | 2.11 | 1.98 | 31 | 966.2 |
| 20260905043032 | 95 | 242 | 0.0 | 0.0 | 0.00 | 2.11 | 1.98 | 31 | 966.1 |
| 20260905041532 | 96 | 272 | 0.0 | 0.0 | 0.00 | 2.11 | 1.98 | 30 | 966.0 |
| 20260905040035 | 96 | 272 | 0.0 | 4.0 | 0.01 | 2.11 | 1.98 | 30 | 965.9 |
| 20260905034531 | 97 | 276 | 0.0 | 7.0 | 0.01 | 2.11 | 1.98 | 29 | 965.8 |
| 20260905033033 | 97 | 292 | 0.0 | 9.0 | 0.01 | 2.11 | 1.98 | 29 | 965.6 |
| 20260905031530 | 97 | 261 | 3.0 | 10.0 | 0.01 | 2.11 | 1.98 | 30 | 965.4 |
| 20260905030036 | 97 | 148 | 0.0 | 0.0 | 0.00 | 2.10 | 1.97 | 36 | 965.2 |
| 20260905024529 | 97 | 148 | 0.0 | 0.0 | 0.00 | 2.11 | 1.97 | 35 | 964.9 |
| 20260905023032 | 97 | 148 | 0.0 | 0.0 | 0.00 | 2.11 | 1.97 | 35 | 964.7 |
| 20260905021529 | 97 | 148 | 0.0 | 0.0 | 0.00 | 2.11 | 1.97 | 35 | 964.6 |
| 20260905020033 | 97 | 148 | 0.0 | 0.0 | 0.00 | 2.11 | 1.97 | 34 | 964.5 |
| 20260905014533 | 98 | 148 | 0.0 | 0.0 | 0.00 | 3.15 | 1.97 | 34 | 964.5 |
| 20260905013030 | 98 | 148 | 0.0 | 0.0 | 0.00 | 3.15 | 1.97 | 34 | 964.4 |
| 20260905011525 | 98 | 148 | 0.0 | 0.0 | 0.00 | 3.15 | 1.97 | 33 | 964.4 |
| 20260905010025 | 99 | 148 | 0.0 | 0.0 | 0.00 | 3.15 | 1.97 | 33 | 964.3 |
| 20260905004537 | 98 | 148 | 0.0 | 0.0 | 0.00 | 3.17 | 1.97 | 34 | 964.4 |
| 20260905003030 | 98 | 148 | 0.0 | 0.0 | 0.00 | 3.17 | 1.97 | 34 | 964.5 |
| 20260905001543 | 98 | 140 | 0.0 | 0.0 | 0.00 | 3.17 | 1.97 | 33 | 964.5 |
| 20260905000021 | 99 | 140 | 0.0 | 5.0 | 0.01 | 3.17 | 1.97 | 33 | 964.5 |
| 20260904234532 | 98 | 146 | 0.0 | 10.0 | 0.01 | 3.19 | 1.97 | 34 | 964.5 |
| 20260904233038 | 99 | 189 | 0.0 | 0.0 | 0.02 | 3.19 | 1.97 | 33 | 964.6 |
| 20260904231524 | 100 | 145 | 0.0 | 9.0 | 0.03 | 3.19 | 1.97 | 33 | 964.7 |
| 20260904230019 | 99 | 238 | 0.0 | 0.0 | 0.09 | 3.18 | 1.96 | 34 | 964.9 |
| 20260904224517 | 99 | 263 | 3.0 | 10.0 | 0.14 | 3.22 | 1.95 | 35 | 965.0 |
| 20260904223015 | 98 | 231 | 0.0 | 6.0 | 0.14 | 3.22 | 1.95 | 35 | 965.1 |
| 20260904221513 | 99 | 210 | 1.0 | 8.0 | 0.28 | 3.21 | 1.94 | 34 | 965.2 |
| 20260904220011 | 99 | 148 | 1.0 | 10.0 | 0.31 | 3.14 | 1.87 | 35 | 965.5 |
| 20260904214510 | 98 | 237 | 0.0 | 8.0 | 0.32 | 3.39 | 1.81 | 36 | 965.7 |
| 20260904213020 | 99 | 169 | 0.0 | 14.0 | 0.36 | 3.39 | 1.81 | 35 | 965.9 |
| 20260904211507 | 100 | 205 | 2.0 | 13.0 | 0.33 | 3.24 | 1.66 | 34 | 966.0 |
| 20260904210005 | 98 | 128 | 3.0 | 10.0 | 0.28 | 3.34 | 1.56 | 35 | 966.1 |
| 20260904204502 | 98 | 150 | 4.0 | 11.0 | 0.33 | 3.27 | 1.49 | 36 | 966.4 |
| 20260904203002 | 96 | 212 | 2.0 | 14.0 | 0.31 | 3.23 | 1.45 | 39 | 966.6 |
| 20260904201601 | 97 | 150 | 3.0 | 10.0 | 0.21 | 3.11 | 1.33 | 38 | 966.7 |
| 20260904200100 | 96 | 167 | 2.0 | 14.0 | 0.21 | 3.05 | 1.27 | 40 | 967.1 |
| 20260904194558 | 95 | 178 | 0.0 | 12.0 | 0.18 | 3.19 | 1.15 | 42 | 967.3 |
| 20260904193113 | 96 | 134 | 0.0 | 6.0 | 0.16 | 3.17 | 1.13 | 42 | 967.5 |
| 20260904191556 | 95 | 180 | 0.0 | 10.0 | 0.17 | 3.15 | 1.12 | 43 | 967.6 |
| 20260904190054 | 95 | 144 | 6.0 | 12.0 | 0.17 | 3.09 | 1.06 | 44 | 967.9 |
| 20260904184552 | 94 | 144 | 2.0 | 12.0 | 0.21 | 3.25 | 0.98 | 45 | 968.1 |
| 20260904183049 | 94 | 145 | 0.0 | 11.0 | 0.24 | 3.25 | 0.98 | 46 | 968.3 |
| 20260904181545 | 93 | 148 | 0.0 | 12.0 | 0.32 | 3.22 | 0.95 | 47 | 968.5 |
| 20260904180042 | 93 | 133 | 0.0 | 10.0 | 0.32 | 3.16 | 0.89 | 48 | 968.6 |
| 20260904174541 | 93 | 126 | 1.0 | 8.0 | 0.22 | 3.07 | 0.77 | 48 | 968.7 |
| 20260904173049 | 92 | 140 | 2.0 | 13.0 | 0.28 | 3.04 | 0.74 | 49 | 968.8 |
| 20260904171536 | 92 | 150 | 3.0 | 13.0 | 0.23 | 2.93 | 0.63 | 50 | 968.8 |
| 20260904170034 | 91 | 146 | 2.0 | 10.0 | 0.25 | 2.87 | 0.56 | 52 | 968.7 |
| 20260904164531 | 91 | 150 | 3.0 | 13.0 | 0.33 | 2.83 | 0.53 | 52 | 968.6 |
| 20260904163028 | 90 | 127 | 3.0 | 10.0 | 0.40 | 2.76 | 0.46 | 53 | 968.5 |
| 20260904161529 | 89 | 117 | 3.0 | 12.0 | 0.39 | 2.70 | 0.40 | 54 | 968.6 |
| 20260904160026 | 89 | 144 | 4.0 | 12.0 | 0.30 | 2.61 | 0.31 | 56 | 968.6 |
| 20260904154525 | 89 | 142 | 5.0 | 11.0 | 0.15 | 2.47 | 0.16 | 56 | 968.5 |
| 20260904153022 | 88 | 103 | 4.0 | 14.0 | 0.05 | 2.37 | 0.06 | 57 | 968.4 |
| 20260904151523 | 88 | 150 | 2.0 | 9.0 | 0.00 | 2.31 | 0.01 | 58 | 968.3 |